contact:dominique.lefevre@mio.osupytheas.fr, maurice.libes@osupytheas.fr, didier.mallarino@osupytheas.fr
Project:EMSO http://www.emso-fr.org/EMSO-France
Depth: 2436.0 m
Title:EMSO Ligure Ouest : Data MII capteur MICROCAT
DateTime_Computer,Latitude,Longitude,Temperature,Conductivity,Pressure,DateTime_Instrument
DateTime_Computer,Latitude,Longitude,degC,S m-1,dbar,DateTime_Instrument
2022-09-16T00:01:13Z,42.805,6.029,13.3017,4.60085,2470.45,2022-9-16T02:03:06Z
2022-09-16T00:04:16Z,42.805,6.029,13.3017,4.60090,2470.437,2022-9-16T02:06:09Z
2022-09-16T00:07:19Z,42.805,6.029,13.3016,4.60090,2470.46,2022-9-16T02:09:12Z
2022-09-16T00:10:23Z,42.805,6.029,13.3017,4.60087,2470.437,2022-9-16T02:12:15Z
2022-09-16T00:13:26Z,42.805,6.029,13.3029,4.60092,2470.437,2022-9-16T02:15:18Z
2022-09-16T00:16:29Z,42.805,6.029,13.3030,4.60087,2470.46,2022-9-16T02:18:21Z
2022-09-16T00:19:32Z,42.805,6.029,13.3035,4.60112,2470.404,2022-9-16T02:21:24Z
2022-09-16T00:22:35Z,42.805,6.029,13.3019,4.60106,2470.413,2022-9-16T02:24:28Z
2022-09-16T00:25:38Z,42.805,6.029,13.3029,4.60102,2470.413,2022-9-16T02:27:31Z
2022-09-16T00:28:41Z,42.805,6.029,13.3024,4.60091,2470.427,2022-9-16T02:30:34Z
2022-09-16T00:31:45Z,42.805,6.029,13.3019,4.60076,2470.404,2022-9-16T02:33:37Z
2022-09-16T00:34:48Z,42.805,6.029,13.3015,4.60087,2470.413,2022-9-16T02:36:40Z
2022-09-16T00:37:51Z,42.805,6.029,13.3019,4.60079,2470.427,2022-9-16T02:39:43Z
2022-09-16T00:40:54Z,42.805,6.029,13.3023,4.60099,2470.437,2022-9-16T02:42:46Z
2022-09-16T00:43:57Z,42.805,6.029,13.3016,4.60081,2470.413,2022-9-16T02:45:49Z
2022-09-16T00:47:00Z,42.805,6.029,13.3015,4.60098,2470.413,2022-9-16T02:48:53Z
2022-09-16T00:50:03Z,42.805,6.029,13.3019,4.60092,2470.45,2022-9-16T02:51:56Z
2022-09-16T00:53:06Z,42.805,6.029,13.3018,4.60093,2470.427,2022-9-16T02:54:59Z
2022-09-16T00:56:09Z,42.805,6.029,13.3010,4.60089,2470.413,2022-9-16T02:58:02Z
2022-09-16T00:59:13Z,42.805,6.029,13.3018,4.60101,2470.437,2022-9-16T03:01:05Z
2022-09-16T01:02:16Z,42.805,6.029,13.3016,4.60087,2470.427,2022-9-16T03:04:08Z
2022-09-16T01:05:19Z,42.805,6.029,13.3029,4.60117,2470.404,2022-9-16T03:07:11Z
2022-09-16T01:08:22Z,42.805,6.029,13.3013,4.60093,2470.413,2022-9-16T03:10:14Z
2022-09-16T01:11:25Z,42.805,6.029,13.3015,4.60077,2470.413,2022-9-16T03:13:18Z
2022-09-16T01:14:28Z,42.805,6.029,13.3016,4.60082,2470.39,2022-9-16T03:16:21Z
2022-09-16T01:17:31Z,42.805,6.029,13.3013,4.60073,2470.413,2022-9-16T03:19:24Z
2022-09-16T01:20:34Z,42.805,6.029,13.3015,4.60086,2470.413,2022-9-16T03:22:27Z
2022-09-16T01:23:38Z,42.805,6.029,13.3019,4.60094,2470.427,2022-9-16T03:25:30Z
2022-09-16T01:26:41Z,42.805,6.029,13.3026,4.60097,2470.413,2022-9-16T03:28:33Z
2022-09-16T01:29:44Z,42.805,6.029,13.3021,4.60081,2470.45,2022-9-16T03:31:36Z
2022-09-16T01:32:47Z,42.805,6.029,13.3026,4.60099,2470.404,2022-9-16T03:34:39Z
2022-09-16T01:35:50Z,42.805,6.029,13.3019,4.60084,2470.413,2022-9-16T03:37:42Z
2022-09-16T01:38:53Z,42.805,6.029,13.3016,4.60072,2470.427,2022-9-16T03:40:46Z
2022-09-16T01:41:56Z,42.805,6.029,13.3014,4.60092,2470.39,2022-9-16T03:43:49Z
2022-09-16T01:44:59Z,42.805,6.029,13.3014,4.60087,2470.39,2022-9-16T03:46:52Z
2022-09-16T01:48:03Z,42.805,6.029,13.3019,4.60091,2470.404,2022-9-16T03:49:55Z
2022-09-16T01:51:06Z,42.805,6.029,13.3041,4.60091,2470.404,2022-9-16T03:52:58Z
2022-09-16T01:54:09Z,42.805,6.029,13.3022,4.60089,2470.39,2022-9-16T03:56:01Z
2022-09-16T01:57:12Z,42.805,6.029,13.3012,4.60077,2470.366,2022-9-16T03:59:04Z
2022-09-16T02:00:15Z,42.805,6.029,13.3015,4.60074,2470.39,2022-9-16T04:02:07Z
2022-09-16T02:03:18Z,42.805,6.029,13.3026,4.60088,2470.343,2022-9-16T04:05:11Z
2022-09-16T02:06:21Z,42.805,6.029,13.3026,4.60099,2470.39,2022-9-16T04:08:14Z
2022-09-16T02:09:24Z,42.805,6.029,13.3024,4.60096,2470.39,2022-9-16T04:11:17Z
2022-09-16T02:12:27Z,42.805,6.029,13.3024,4.60079,2470.404,2022-9-16T04:14:20Z
2022-09-16T02:15:31Z,42.805,6.029,13.3024,4.60094,2470.39,2022-9-16T04:17:23Z
2022-09-16T02:18:34Z,42.805,6.029,13.3019,4.60107,2470.39,2022-9-16T04:20:26Z
2022-09-16T02:21:37Z,42.805,6.029,13.3019,4.60114,2470.404,2022-9-16T04:23:29Z
2022-09-16T02:24:40Z,42.805,6.029,13.3033,4.60105,2470.366,2022-9-16T04:26:32Z
2022-09-16T02:27:43Z,42.805,6.029,13.3019,4.60110,2470.404,2022-9-16T04:29:36Z
2022-09-16T02:30:46Z,42.805,6.029,13.3031,4.60104,2470.366,2022-9-16T04:32:39Z
2022-09-16T02:33:49Z,42.805,6.029,13.3022,4.60096,2470.39,2022-9-16T04:35:42Z
2022-09-16T02:36:52Z,42.805,6.029,13.3019,4.60084,2470.366,2022-9-16T04:38:45Z
2022-09-16T02:39:56Z,42.805,6.029,13.3016,4.60087,2470.39,2022-9-16T04:41:48Z
2022-09-16T02:42:59Z,42.805,6.029,13.3019,4.60080,2470.39,2022-9-16T04:44:51Z
2022-09-16T02:46:02Z,42.805,6.029,13.3015,4.60087,2470.366,2022-9-16T04:47:54Z
2022-09-16T02:49:05Z,42.805,6.029,13.3017,4.60113,2470.39,2022-9-16T04:50:57Z
2022-09-16T02:52:08Z,42.805,6.029,13.3020,4.60081,2470.38,2022-9-16T04:54:01Z
2022-09-16T02:55:11Z,42.805,6.029,13.3020,4.60085,2470.366,2022-9-16T04:57:04Z
2022-09-16T02:58:14Z,42.805,6.029,13.3023,4.60087,2470.404,2022-9-16T05:00:07Z
2022-09-16T03:01:17Z,42.805,6.029,13.3026,4.60085,2470.39,2022-9-16T05:03:10Z
2022-09-16T03:04:21Z,42.805,6.029,13.3024,4.60099,2470.38,2022-9-16T05:06:13Z
2022-09-16T03:07:24Z,42.805,6.029,13.3014,4.60086,2470.366,2022-9-16T05:09:16Z
2022-09-16T03:10:27Z,42.805,6.029,13.3028,4.60095,2470.343,2022-9-16T05:12:19Z
2022-09-16T03:13:30Z,42.805,6.029,13.3018,4.60089,2470.39,2022-9-16T05:15:22Z
2022-09-16T03:16:33Z,42.805,6.029,13.3016,4.60081,2470.404,2022-9-16T05:18:25Z
2022-09-16T03:19:36Z,42.805,6.029,13.3016,4.60089,2470.39,2022-9-16T05:21:29Z
2022-09-16T03:22:39Z,42.805,6.029,13.3024,4.60113,2470.404,2022-9-16T05:24:32Z
2022-09-16T03:25:42Z,42.805,6.029,13.3026,4.60100,2470.38,2022-9-16T05:27:35Z
2022-09-16T03:28:45Z,42.805,6.029,13.3025,4.60090,2470.357,2022-9-16T05:30:38Z
2022-09-16T03:31:49Z,42.805,6.029,13.3019,4.60092,2470.38,2022-9-16T05:33:41Z
2022-09-16T03:34:52Z,42.805,6.029,13.3030,4.60114,2470.343,2022-9-16T05:36:44Z
2022-09-16T03:37:55Z,42.805,6.029,13.3031,4.60113,2470.343,2022-9-16T05:39:47Z
2022-09-16T03:40:58Z,42.805,6.029,13.3033,4.60078,2470.366,2022-9-16T05:42:50Z
2022-09-16T03:44:01Z,42.805,6.029,13.3029,4.60113,2470.366,2022-9-16T05:45:54Z
2022-09-16T03:47:04Z,42.805,6.029,13.3019,4.60090,2470.357,2022-9-16T05:48:57Z
2022-09-16T03:50:07Z,42.805,6.029,13.3022,4.60092,2470.343,2022-9-16T05:52:00Z
2022-09-16T03:53:10Z,42.805,6.029,13.3027,4.60102,2470.357,2022-9-16T05:55:03Z
2022-09-16T03:56:14Z,42.805,6.029,13.3041,4.60125,2470.366,2022-9-16T05:58:06Z
2022-09-16T03:59:17Z,42.805,6.029,13.3041,4.60139,2470.366,2022-9-16T06:01:09Z
2022-09-16T04:02:20Z,42.805,6.029,13.3044,4.60141,2470.357,2022-9-16T06:04:12Z
2022-09-16T04:05:23Z,42.805,6.029,13.3037,4.60123,2470.357,2022-9-16T06:07:15Z
2022-09-16T04:08:26Z,42.805,6.029,13.3047,4.60145,2470.366,2022-9-16T06:10:19Z
2022-09-16T04:11:29Z,42.805,6.029,13.3031,4.60141,2470.343,2022-9-16T06:13:22Z
2022-09-16T04:14:32Z,42.805,6.029,13.3024,4.60117,2470.357,2022-9-16T06:16:25Z
2022-09-16T04:17:35Z,42.805,6.029,13.3019,4.60108,2470.366,2022-9-16T06:19:28Z
2022-09-16T04:20:39Z,42.805,6.029,13.3026,4.60111,2470.343,2022-9-16T06:22:31Z
2022-09-16T04:23:42Z,42.805,6.029,13.3026,4.60098,2470.343,2022-9-16T06:25:34Z
2022-09-16T04:26:45Z,42.805,6.029,13.3031,4.60079,2470.366,2022-9-16T06:28:37Z
2022-09-16T04:29:48Z,42.805,6.029,13.3039,4.60140,2470.357,2022-9-16T06:31:40Z
2022-09-16T04:32:51Z,42.805,6.029,13.3051,4.60127,2470.357,2022-9-16T06:34:43Z
2022-09-16T04:35:54Z,42.805,6.029,13.3040,4.60127,2470.343,2022-9-16T06:37:47Z
2022-09-16T04:38:57Z,42.805,6.029,13.3038,4.60121,2470.343,2022-9-16T06:40:50Z
2022-09-16T04:42:00Z,42.805,6.029,13.3064,4.60093,2470.38,2022-9-16T06:43:53Z
2022-09-16T04:45:04Z,42.805,6.029,13.3065,4.60090,2470.343,2022-9-16T06:46:56Z
2022-09-16T04:48:07Z,42.805,6.029,13.3062,4.60111,2470.32,2022-9-16T06:49:59Z
2022-09-16T04:51:10Z,42.805,6.029,13.3039,4.60126,2470.38,2022-9-16T06:53:02Z
2022-09-16T04:54:13Z,42.805,6.029,13.3043,4.60123,2470.366,2022-9-16T06:56:05Z
2022-09-16T04:57:16Z,42.805,6.029,13.3054,4.60094,2470.343,2022-9-16T06:59:08Z
2022-09-16T05:00:19Z,42.805,6.029,13.3051,4.60129,2470.366,2022-9-16T07:02:12Z
2022-09-16T05:03:22Z,42.805,6.029,13.3063,4.60119,2470.366,2022-9-16T07:05:15Z
2022-09-16T05:06:25Z,42.805,6.029,13.3047,4.60122,2470.38,2022-9-16T07:08:18Z
2022-09-16T05:09:28Z,42.805,6.029,13.3056,4.60130,2470.366,2022-9-16T07:11:21Z
2022-09-16T05:12:32Z,42.805,6.029,13.3067,4.60125,2470.38,2022-9-16T07:14:24Z
2022-09-16T05:15:35Z,42.805,6.029,13.3064,4.60124,2470.366,2022-9-16T07:17:27Z
2022-09-16T05:18:38Z,42.805,6.029,13.3068,4.60107,2470.343,2022-9-16T07:20:30Z
2022-09-16T05:21:41Z,42.805,6.029,13.3045,4.60104,2470.357,2022-9-16T07:23:33Z
2022-09-16T05:24:44Z,42.805,6.029,13.3039,4.60120,2470.366,2022-9-16T07:26:37Z
2022-09-16T05:27:47Z,42.805,6.029,13.3029,4.60144,2470.38,2022-9-16T07:29:40Z
2022-09-16T05:30:50Z,42.805,6.029,13.3029,4.60159,2470.343,2022-9-16T07:32:43Z
2022-09-16T05:33:53Z,42.805,6.029,13.3029,4.60123,2470.366,2022-9-16T07:35:46Z
2022-09-16T05:36:57Z,42.805,6.029,13.3043,4.60114,2470.343,2022-9-16T07:38:49Z
2022-09-16T05:40:00Z,42.805,6.029,13.3039,4.60114,2470.343,2022-9-16T07:41:52Z
2022-09-16T05:43:03Z,42.805,6.029,13.3040,4.60092,2470.366,2022-9-16T07:44:55Z
2022-09-16T05:46:06Z,42.805,6.029,13.3028,4.60127,2470.366,2022-9-16T07:47:58Z
2022-09-16T05:49:09Z,42.805,6.029,13.3030,4.60122,2470.343,2022-9-16T07:51:02Z
2022-09-16T05:52:12Z,42.805,6.029,13.3039,4.60107,2470.343,2022-9-16T07:54:05Z
2022-09-16T05:55:15Z,42.805,6.029,13.3042,4.60127,2470.33,2022-9-16T07:57:08Z
2022-09-16T05:58:18Z,42.805,6.029,13.3068,4.60113,2470.334,2022-9-16T08:00:11Z
2022-09-16T06:01:22Z,42.805,6.029,13.3064,4.60116,2470.343,2022-9-16T08:03:14Z
2022-09-16T06:04:25Z,42.805,6.029,13.3067,4.60110,2470.357,2022-9-16T08:06:17Z
2022-09-16T06:07:28Z,42.805,6.029,13.3070,4.60093,2470.357,2022-9-16T08:09:20Z
2022-09-16T06:10:31Z,42.805,6.029,13.3024,4.60119,2470.39,2022-9-16T08:12:23Z
2022-09-16T06:13:34Z,42.805,6.029,13.3045,4.60102,2470.366,2022-9-16T08:15:26Z
2022-09-16T06:16:37Z,42.805,6.029,13.3065,4.60080,2470.404,2022-9-16T08:18:30Z
2022-09-16T06:19:40Z,42.805,6.029,13.3063,4.60086,2470.38,2022-9-16T08:21:33Z
2022-09-16T06:22:43Z,42.805,6.029,13.3067,4.60106,2470.38,2022-9-16T08:24:36Z
2022-09-16T06:25:47Z,42.805,6.029,13.3073,4.60078,2470.357,2022-9-16T08:27:39Z
2022-09-16T06:28:50Z,42.805,6.029,13.3033,4.60091,2470.357,2022-9-16T08:30:42Z
2022-09-16T06:31:53Z,42.805,6.029,13.3048,4.60114,2470.371,2022-9-16T08:33:45Z
2022-09-16T06:34:56Z,42.805,6.029,13.3047,4.60119,2470.343,2022-9-16T08:36:48Z
2022-09-16T06:37:59Z,42.805,6.029,13.3062,4.60089,2470.283,2022-9-16T08:39:51Z
2022-09-16T06:41:02Z,42.805,6.029,13.3036,4.60108,2470.357,2022-9-16T08:42:55Z
2022-09-16T06:44:05Z,42.805,6.029,13.3057,4.60104,2470.38,2022-9-16T08:45:58Z
2022-09-16T06:47:08Z,42.805,6.029,13.3058,4.60119,2470.366,2022-9-16T08:49:01Z
2022-09-16T06:50:11Z,42.805,6.029,13.3051,4.60089,2470.366,2022-9-16T08:52:04Z
2022-09-16T06:53:15Z,42.805,6.029,13.3064,4.60102,2470.39,2022-9-16T08:55:07Z
2022-09-16T06:56:18Z,42.805,6.029,13.3061,4.60091,2470.357,2022-9-16T08:58:10Z
2022-09-16T06:59:21Z,42.805,6.029,13.3097,4.60131,2470.366,2022-9-16T09:01:13Z
2022-09-16T07:02:24Z,42.805,6.029,13.3108,4.60086,2470.38,2022-9-16T09:04:16Z
2022-09-16T07:05:27Z,42.805,6.029,13.3089,4.60092,2470.357,2022-9-16T09:07:20Z
2022-09-16T07:08:30Z,42.805,6.029,13.3073,4.60112,2470.38,2022-9-16T09:10:23Z
2022-09-16T07:11:33Z,42.805,6.029,13.3079,4.60097,2470.38,2022-9-16T09:13:26Z
2022-09-16T07:14:36Z,42.805,6.029,13.3092,4.60128,2470.38,2022-9-16T09:16:29Z
2022-09-16T07:17:40Z,42.805,6.029,13.3076,4.60156,2470.343,2022-9-16T09:19:32Z
2022-09-16T07:20:43Z,42.805,6.029,13.3094,4.60107,2470.357,2022-9-16T09:22:35Z
2022-09-16T07:23:46Z,42.805,6.029,13.3050,4.60114,2470.413,2022-9-16T09:25:38Z
2022-09-16T07:26:49Z,42.805,6.029,13.3056,4.60112,2470.39,2022-9-16T09:28:41Z
2022-09-16T07:29:52Z,42.805,6.029,13.3064,4.60087,2470.38,2022-9-16T09:31:45Z
2022-09-16T07:32:55Z,42.805,6.029,13.3076,4.60083,2470.404,2022-9-16T09:34:48Z
2022-09-16T07:35:58Z,42.805,6.029,13.3064,4.60079,2470.39,2022-9-16T09:37:51Z
2022-09-16T07:39:01Z,42.805,6.029,13.3067,4.60086,2470.413,2022-9-16T09:40:54Z
2022-09-16T07:42:05Z,42.805,6.029,13.3066,4.60091,2470.404,2022-9-16T09:43:57Z
2022-09-16T07:45:08Z,42.805,6.029,13.3068,4.60150,2470.413,2022-9-16T09:47:00Z
2022-09-16T07:48:11Z,42.805,6.029,13.3084,4.60135,2470.404,2022-9-16T09:50:03Z
2022-09-16T07:51:14Z,42.805,6.029,13.3050,4.60096,2470.427,2022-9-16T09:53:06Z
2022-09-16T07:54:17Z,42.805,6.029,13.3044,4.60115,2470.427,2022-9-16T09:56:10Z
2022-09-16T07:57:20Z,42.805,6.029,13.3038,4.60111,2470.38,2022-9-16T09:59:13Z
2022-09-16T08:00:23Z,42.805,6.029,13.3029,4.60137,2470.45,2022-9-16T10:02:16Z
2022-09-16T08:03:26Z,42.805,6.029,13.3041,4.60112,2470.45,2022-9-16T10:05:19Z
2022-09-16T08:06:30Z,42.805,6.029,13.3050,4.60112,2470.427,2022-9-16T10:08:22Z
2022-09-16T08:09:33Z,42.805,6.029,13.3079,4.60129,2470.437,2022-9-16T10:11:25Z
2022-09-16T08:12:36Z,42.805,6.029,13.3101,4.60096,2470.437,2022-9-16T10:14:28Z
2022-09-16T08:15:39Z,42.805,6.029,13.3036,4.60110,2470.437,2022-9-16T10:17:31Z
2022-09-16T08:18:42Z,42.805,6.029,13.3078,4.60149,2470.45,2022-9-16T10:20:35Z
2022-09-16T08:21:45Z,42.805,6.029,13.3060,4.60096,2470.45,2022-9-16T10:23:38Z
2022-09-16T08:24:48Z,42.805,6.029,13.3065,4.60236,2470.437,2022-9-16T10:26:41Z
2022-09-16T08:27:51Z,42.805,6.029,13.3093,4.60117,2470.437,2022-9-16T10:29:44Z
2022-09-16T08:30:55Z,42.805,6.029,13.3111,4.60072,2470.404,2022-9-16T10:32:47Z
2022-09-16T08:33:58Z,42.805,6.029,13.3069,4.60094,2470.427,2022-9-16T10:35:50Z
2022-09-16T08:37:01Z,42.805,6.029,13.3041,4.60122,2470.474,2022-9-16T10:38:53Z
2022-09-16T08:40:04Z,42.805,6.029,13.3059,4.60132,2470.45,2022-9-16T10:41:56Z
2022-09-16T08:43:07Z,42.805,6.029,13.3093,4.60148,2470.437,2022-9-16T10:45:00Z
2022-09-16T08:46:10Z,42.805,6.029,13.3083,4.60072,2470.45,2022-9-16T10:48:03Z
2022-09-16T08:49:13Z,42.805,6.029,13.3041,4.60110,2470.497,2022-9-16T10:51:06Z
2022-09-16T08:52:16Z,42.805,6.029,13.3040,4.60102,2470.474,2022-9-16T10:54:09Z
2022-09-16T08:55:20Z,42.805,6.029,13.3061,4.60136,2470.474,2022-9-16T10:57:12Z
2022-09-16T08:58:23Z,42.805,6.029,13.3109,4.60135,2470.46,2022-9-16T11:00:15Z
2022-09-16T09:01:26Z,42.805,6.029,13.3086,4.60087,2470.483,2022-9-16T11:03:18Z
2022-09-16T09:04:29Z,42.805,6.029,13.3048,4.60107,2470.46,2022-9-16T11:06:21Z
2022-09-16T09:07:32Z,42.805,6.029,13.3061,4.60110,2470.45,2022-9-16T11:09:24Z
2022-09-16T09:10:35Z,42.805,6.029,13.3066,4.60086,2470.474,2022-9-16T11:12:28Z
2022-09-16T09:13:38Z,42.805,6.029,13.3082,4.60074,2470.45,2022-9-16T11:15:31Z
2022-09-16T09:16:41Z,42.805,6.029,13.3084,4.60112,2470.45,2022-9-16T11:18:34Z
2022-09-16T09:19:45Z,42.805,6.029,13.3087,4.60113,2470.46,2022-9-16T11:21:37Z
2022-09-16T09:22:48Z,42.805,6.029,13.3112,4.60127,2470.474,2022-9-16T11:24:40Z
2022-09-16T09:25:51Z,42.805,6.029,13.3096,4.60140,2470.474,2022-9-16T11:27:43Z
2022-09-16T09:28:54Z,42.805,6.029,13.3113,4.60121,2470.437,2022-9-16T11:30:46Z
2022-09-16T09:31:57Z,42.805,6.029,13.3114,4.60088,2470.52,2022-9-16T11:33:50Z
2022-09-16T09:35:00Z,42.805,6.029,13.3111,4.60114,2470.497,2022-9-16T11:36:53Z
2022-09-16T09:38:03Z,42.805,6.029,13.3105,4.60104,2470.483,2022-9-16T11:39:56Z
2022-09-16T09:41:06Z,42.805,6.029,13.3067,4.60095,2470.497,2022-9-16T11:42:59Z
2022-09-16T09:44:10Z,42.805,6.029,13.3037,4.60103,2470.497,2022-9-16T11:46:02Z
2022-09-16T09:47:13Z,42.805,6.029,13.3033,4.60151,2470.483,2022-9-16T11:49:05Z
2022-09-16T09:50:16Z,42.805,6.029,13.3031,4.60117,2470.497,2022-9-16T11:52:08Z
2022-09-16T09:53:19Z,42.805,6.029,13.3046,4.60127,2470.507,2022-9-16T11:55:11Z
2022-09-16T09:56:22Z,42.805,6.029,13.3066,4.60129,2470.52,2022-9-16T11:58:15Z
2022-09-16T09:59:25Z,42.805,6.029,13.3058,4.60121,2470.544,2022-9-16T12:01:18Z
2022-09-16T10:02:28Z,42.805,6.029,13.3056,4.60135,2470.497,2022-9-16T12:04:21Z
2022-09-16T10:05:31Z,42.805,6.029,13.3068,4.60095,2470.497,2022-9-16T12:07:24Z
2022-09-16T10:08:35Z,42.805,6.029,13.3066,4.60107,2470.483,2022-9-16T12:10:27Z
2022-09-16T10:11:38Z,42.805,6.029,13.3058,4.60128,2470.45,2022-9-16T12:13:30Z
2022-09-16T10:14:41Z,42.805,6.029,13.3058,4.60132,2470.483,2022-9-16T12:16:33Z
2022-09-16T10:17:44Z,42.805,6.029,13.3061,4.60135,2470.483,2022-9-16T12:19:36Z
2022-09-16T10:20:47Z,42.805,6.029,13.3069,4.60137,2470.497,2022-9-16T12:22:40Z
2022-09-16T10:23:50Z,42.805,6.029,13.3069,4.60152,2470.497,2022-9-16T12:25:43Z
2022-09-16T10:26:53Z,42.805,6.029,13.3068,4.60170,2470.483,2022-9-16T12:28:46Z
2022-09-16T10:29:56Z,42.805,6.029,13.3057,4.60135,2470.52,2022-9-16T12:31:49Z
2022-09-16T10:33:00Z,42.805,6.029,13.3075,4.60142,2470.474,2022-9-16T12:34:52Z
2022-09-16T10:36:03Z,42.805,6.029,13.3076,4.60125,2470.483,2022-9-16T12:37:55Z
2022-09-16T10:39:06Z,42.805,6.029,13.3073,4.60117,2470.474,2022-9-16T12:40:58Z
2022-09-16T10:42:09Z,42.805,6.029,13.3067,4.60137,2470.497,2022-9-16T12:44:01Z
2022-09-16T10:45:12Z,42.805,6.029,13.3065,4.60164,2470.483,2022-9-16T12:47:05Z
2022-09-16T10:48:15Z,42.805,6.029,13.3073,4.60175,2470.52,2022-9-16T12:50:08Z
2022-09-16T10:51:18Z,42.805,6.029,13.3073,4.60151,2470.52,2022-9-16T12:53:11Z
2022-09-16T10:54:21Z,42.805,6.029,13.3071,4.60157,2470.497,2022-9-16T12:56:14Z
2022-09-16T10:57:25Z,42.805,6.029,13.3070,4.60135,2470.474,2022-9-16T12:59:17Z
2022-09-16T11:00:28Z,42.805,6.029,13.3083,4.60128,2470.497,2022-9-16T13:02:20Z
2022-09-16T11:03:31Z,42.805,6.029,13.3093,4.60160,2470.474,2022-9-16T13:05:23Z
2022-09-16T11:06:34Z,42.805,6.029,13.3090,4.60141,2470.483,2022-9-16T13:08:26Z
2022-09-16T11:09:37Z,42.805,6.029,13.3086,4.60107,2470.497,2022-9-16T13:11:30Z
2022-09-16T11:12:40Z,42.805,6.029,13.3089,4.60110,2470.507,2022-9-16T13:14:33Z
2022-09-16T11:15:43Z,42.805,6.029,13.3056,4.60102,2470.46,2022-9-16T13:17:36Z
2022-09-16T11:18:46Z,42.805,6.029,13.3061,4.60123,2470.483,2022-9-16T13:20:39Z
2022-09-16T11:21:50Z,42.805,6.029,13.3063,4.60121,2470.52,2022-9-16T13:23:42Z
2022-09-16T11:24:53Z,42.805,6.029,13.3072,4.60110,2470.507,2022-9-16T13:26:45Z
2022-09-16T11:27:56Z,42.805,6.029,13.3044,4.60120,2470.507,2022-9-16T13:29:48Z
2022-09-16T11:30:59Z,42.805,6.029,13.3048,4.60176,2470.497,2022-9-16T13:32:51Z
2022-09-16T11:34:02Z,42.805,6.029,13.3038,4.60143,2470.46,2022-9-16T13:35:55Z
2022-09-16T11:37:05Z,42.805,6.029,13.3036,4.60116,2470.474,2022-9-16T13:38:58Z
2022-09-16T11:40:08Z,42.805,6.029,13.3061,4.60102,2470.437,2022-9-16T13:42:01Z
2022-09-16T11:43:11Z,42.805,6.029,13.3043,4.60117,2470.497,2022-9-16T13:45:04Z
2022-09-16T11:46:15Z,42.805,6.029,13.3078,4.60102,2470.497,2022-9-16T13:48:07Z
2022-09-16T11:49:18Z,42.805,6.029,13.3049,4.60151,2470.497,2022-9-16T13:51:10Z
2022-09-16T11:52:21Z,42.805,6.029,13.3071,4.60104,2470.474,2022-9-16T13:54:13Z
2022-09-16T11:55:24Z,42.805,6.029,13.3043,4.60085,2470.474,2022-9-16T13:57:16Z
2022-09-16T11:58:27Z,42.805,6.029,13.3036,4.60089,2470.483,2022-9-16T14:00:20Z
2022-09-16T12:01:30Z,42.805,6.029,13.3051,4.60104,2470.46,2022-9-16T14:03:23Z
2022-09-16T12:04:33Z,42.805,6.029,13.3060,4.60098,2470.497,2022-9-16T14:06:26Z
2022-09-16T12:07:36Z,42.805,6.029,13.3070,4.60119,2470.483,2022-9-16T14:09:29Z
2022-09-16T12:10:40Z,42.805,6.029,13.3036,4.60126,2470.474,2022-9-16T14:12:32Z
2022-09-16T12:13:43Z,42.805,6.029,13.3031,4.60117,2470.497,2022-9-16T14:15:35Z
2022-09-16T12:16:46Z,42.805,6.029,13.3075,4.60134,2470.437,2022-9-16T14:18:38Z
2022-09-16T12:19:49Z,42.805,6.029,13.3051,4.60125,2470.474,2022-9-16T14:21:41Z
2022-09-16T12:22:52Z,42.805,6.029,13.3049,4.60114,2470.46,2022-9-16T14:24:45Z
2022-09-16T12:25:55Z,42.805,6.029,13.3057,4.60138,2470.474,2022-9-16T14:27:48Z
2022-09-16T12:28:58Z,42.805,6.029,13.3062,4.60140,2470.474,2022-9-16T14:30:51Z
2022-09-16T12:38:08Z,42.805,6.029,13.3056,4.60128,2470.437,2022-9-16T14:40:01Z
2022-09-16T12:41:11Z,42.805,6.029,13.3056,4.60110,2470.483,2022-9-16T14:43:04Z
2022-09-16T12:44:14Z,42.805,6.029,13.3041,4.60135,2470.45,2022-9-16T14:46:07Z
2022-09-16T12:47:17Z,42.805,6.029,13.3048,4.60149,2470.46,2022-9-16T14:49:10Z
2022-09-16T12:50:21Z,42.805,6.029,13.3033,4.60102,2470.474,2022-9-16T14:52:13Z
2022-09-16T12:53:24Z,42.805,6.029,13.3036,4.60129,2470.46,2022-9-16T14:55:16Z
2022-09-16T12:56:27Z,42.805,6.029,13.3063,4.60125,2470.437,2022-9-16T14:58:19Z
2022-09-16T12:59:30Z,42.805,6.029,13.3062,4.60132,2470.474,2022-9-16T15:01:22Z
2022-09-16T13:02:33Z,42.805,6.029,13.3047,4.60123,2470.45,2022-9-16T15:04:26Z
2022-09-16T13:05:36Z,42.805,6.029,13.3039,4.60165,2470.45,2022-9-16T15:07:29Z
2022-09-16T13:08:39Z,42.805,6.029,13.3033,4.60098,2470.437,2022-9-16T15:10:32Z
2022-09-16T13:11:42Z,42.805,6.029,13.3090,4.60114,2470.437,2022-9-16T15:13:35Z
2022-09-16T13:14:46Z,42.805,6.029,13.3048,4.60125,2470.437,2022-9-16T15:16:38Z
2022-09-16T13:17:49Z,42.805,6.029,13.3028,4.60094,2470.46,2022-9-16T15:19:41Z
2022-09-16T13:20:52Z,42.805,6.029,13.3073,4.60092,2470.437,2022-9-16T15:22:44Z
2022-09-16T13:23:55Z,42.805,6.029,13.3031,4.60099,2470.437,2022-9-16T15:25:48Z
2022-09-16T13:26:58Z,42.805,6.029,13.3042,4.60128,2470.474,2022-9-16T15:28:51Z
2022-09-16T13:30:01Z,42.805,6.029,13.3032,4.60111,2470.474,2022-9-16T15:31:54Z
2022-09-16T13:33:04Z,42.805,6.029,13.3036,4.60128,2470.437,2022-9-16T15:34:57Z
2022-09-16T13:36:08Z,42.805,6.029,13.3050,4.60159,2470.45,2022-9-16T15:38:00Z
2022-09-16T13:39:11Z,42.805,6.029,13.3061,4.60110,2470.474,2022-9-16T15:41:03Z
2022-09-16T13:42:14Z,42.805,6.029,13.3067,4.60106,2470.427,2022-9-16T15:44:06Z
2022-09-16T13:45:17Z,42.805,6.029,13.3042,4.60102,2470.413,2022-9-16T15:47:09Z
2022-09-16T13:48:20Z,42.805,6.029,13.3046,4.60110,2470.45,2022-9-16T15:50:13Z
2022-09-16T13:51:23Z,42.805,6.029,13.3036,4.60110,2470.45,2022-9-16T15:53:16Z
2022-09-16T13:54:26Z,42.805,6.029,13.3046,4.60111,2470.437,2022-9-16T15:56:19Z
2022-09-16T13:57:29Z,42.805,6.029,13.3044,4.60094,2470.437,2022-9-16T15:59:22Z
2022-09-16T14:00:33Z,42.805,6.029,13.3060,4.60109,2470.404,2022-9-16T16:02:25Z
2022-09-16T14:03:36Z,42.805,6.029,13.3050,4.60114,2470.413,2022-9-16T16:05:28Z
2022-09-16T14:06:39Z,42.805,6.029,13.3048,4.60131,2470.45,2022-9-16T16:08:31Z
2022-09-16T14:09:42Z,42.805,6.029,13.3025,4.60095,2470.45,2022-9-16T16:11:34Z
2022-09-16T14:12:45Z,42.805,6.029,13.3048,4.60112,2470.404,2022-9-16T16:14:38Z
2022-09-16T14:15:48Z,42.805,6.029,13.3023,4.60119,2470.45,2022-9-16T16:17:41Z
2022-09-16T14:18:51Z,42.805,6.029,13.3038,4.60145,2470.413,2022-9-16T16:20:44Z
2022-09-16T14:21:54Z,42.805,6.029,13.3045,4.60114,2470.404,2022-9-16T16:23:47Z
2022-09-16T14:24:58Z,42.805,6.029,13.3031,4.60115,2470.413,2022-9-16T16:26:50Z
2022-09-16T14:28:01Z,42.805,6.029,13.3048,4.60119,2470.437,2022-9-16T16:29:53Z
2022-09-16T14:31:04Z,42.805,6.029,13.3050,4.60108,2470.413,2022-9-16T16:32:56Z
2022-09-16T14:34:07Z,42.805,6.029,13.3041,4.60119,2470.437,2022-9-16T16:35:59Z
2022-09-16T14:37:10Z,42.805,6.029,13.3039,4.60110,2470.427,2022-9-16T16:39:03Z
2022-09-16T14:40:13Z,42.805,6.029,13.3029,4.60125,2470.404,2022-9-16T16:42:06Z
2022-09-16T14:43:16Z,42.805,6.029,13.3029,4.60152,2470.45,2022-9-16T16:45:09Z
2022-09-16T14:46:19Z,42.805,6.029,13.3038,4.60117,2470.45,2022-9-16T16:48:12Z
2022-09-16T14:49:23Z,42.805,6.029,13.3039,4.60114,2470.427,2022-9-16T16:51:15Z
2022-09-16T14:52:26Z,42.805,6.029,13.3026,4.60105,2470.404,2022-9-16T16:54:18Z
2022-09-16T14:55:29Z,42.805,6.029,13.3031,4.60117,2470.413,2022-9-16T16:57:21Z
2022-09-16T14:58:32Z,42.805,6.029,13.3039,4.60116,2470.46,2022-9-16T17:00:24Z
2022-09-16T15:01:35Z,42.805,6.029,13.3058,4.60132,2470.427,2022-9-16T17:03:28Z
2022-09-16T15:04:38Z,42.805,6.029,13.3039,4.60131,2470.404,2022-9-16T17:06:31Z
2022-09-16T15:07:41Z,42.805,6.029,13.3044,4.60131,2470.366,2022-9-16T17:09:34Z
2022-09-16T15:10:44Z,42.805,6.029,13.3040,4.60152,2470.39,2022-9-16T17:12:37Z
2022-09-16T15:13:48Z,42.805,6.029,13.3048,4.60114,2470.404,2022-9-16T17:15:40Z
2022-09-16T15:16:51Z,42.805,6.029,13.3042,4.60152,2470.427,2022-9-16T17:18:43Z